owner,sensor,date,latitude,longitude,vertical_datum,mass_concentration_of_oxygen_in_sea_water,qcFlag 
SCCF RECON,ioos:station:SCCF:51:1,2011-02-01T00:00:00Z,26.5545,-82.1715,1.83,8.23,1111122 
SCCF RECON,ioos:station:SCCF:51:1,2011-02-01T01:00:00Z,26.5545,-82.1715,1.903,8.03,1111122 
SCCF RECON,ioos:station:SCCF:51:1,2011-02-01T02:00:00Z,26.5545,-82.1715,2.0,7.89,1111122 
SCCF RECON,ioos:station:SCCF:51:1,2011-02-01T03:00:00Z,26.5545,-82.1715,2.05,7.83,1111122 
SCCF RECON,ioos:station:SCCF:51:1,2011-02-01T04:00:00Z,26.5545,-82.1715,2.07,7.67,1111122 
SCCF RECON,ioos:station:SCCF:51:1,2011-02-01T05:00:00Z,26.5545,-82.1715,2.034,8.04,1111122 
SCCF RECON,ioos:station:SCCF:51:1,2011-02-01T06:00:00Z,26.5545,-82.1715,1.95,7.87,1111122 
SCCF RECON,ioos:station:SCCF:51:1,2011-02-01T07:00:00Z,26.5545,-82.1715,1.83,7.85,1111122 
SCCF RECON,ioos:station:SCCF:51:1,2011-02-01T08:00:00Z,26.5545,-82.1715,1.686,7.8,1111122 
SCCF RECON,ioos:station:SCCF:51:1,2011-02-01T09:00:00Z,26.5545,-82.1715,1.55,7.7,1111122 
SCCF RECON,ioos:station:SCCF:51:1,2011-02-01T10:00:00Z,26.5545,-82.1715,1.43,7.73,1111122 
SCCF RECON,ioos:station:SCCF:51:1,2011-02-01T11:00:00Z,26.5545,-82.1715,1.33,7.66,1111122 
SCCF RECON,ioos:station:SCCF:51:1,2011-02-01T12:00:00Z,26.5545,-82.1715,1.276,7.55,1111122 
SCCF RECON,ioos:station:SCCF:51:1,2011-02-01T13:00:00Z,26.5545,-82.1715,1.319,7.61,1111122 
SCCF RECON,ioos:station:SCCF:51:1,2011-02-01T14:00:00Z,26.5545,-82.1715,1.425,7.67,1111122 
SCCF RECON,ioos:station:SCCF:51:1,2011-02-01T15:00:00Z,26.5545,-82.1715,1.564,7.57,1111122 
SCCF RECON,ioos:station:SCCF:51:1,2011-02-01T16:00:00Z,26.5545,-82.1715,1.679,7.69,1111122 
SCCF RECON,ioos:station:SCCF:51:1,2011-02-01T17:00:00Z,26.5545,-82.1715,1.768,7.69,1111122 
SCCF RECON,ioos:station:SCCF:51:1,2011-02-01T18:00:00Z,26.5545,-82.1715,1.81,7.72,1111122 
SCCF RECON,ioos:station:SCCF:51:1,2011-02-01T19:00:00Z,26.5545,-82.1715,1.799,7.83,1111122 
SCCF RECON,ioos:station:SCCF:51:1,2011-02-01T20:00:00Z,26.5545,-82.1715,1.771,7.83,1111122 
SCCF RECON,ioos:station:SCCF:51:1,2011-02-01T21:00:00Z,26.5545,-82.1715,1.733,7.61,1111122 
SCCF RECON,ioos:station:SCCF:51:1,2011-02-01T22:00:00Z,26.5545,-82.1715,1.714,7.71,1111122 
SCCF RECON,ioos:station:SCCF:51:1,2011-02-01T23:00:00Z,26.5545,-82.1715,1.742,7.59,1111122 
SCCF RECON,ioos:station:SCCF:51:1,2011-02-02T00:00:00Z,26.5545,-82.1715,1.805,7.68,1111122 
SCCF RECON,ioos:station:SCCF:51:1,2011-02-02T01:00:00Z,26.5545,-82.1715,1.884,7.57,1111122 
SCCF RECON,ioos:station:SCCF:51:1,2011-02-02T02:00:00Z,26.5545,-82.1715,1.989,7.68,1111122 
SCCF RECON,ioos:station:SCCF:51:1,2011-02-02T03:00:00Z,26.5545,-82.1715,2.09,7.66,1111122 
SCCF RECON,ioos:station:SCCF:51:1,2011-02-02T04:00:00Z,26.5545,-82.1715,2.15,7.67,1111122 
SCCF RECON,ioos:station:SCCF:51:1,2011-02-02T05:00:00Z,26.5545,-82.1715,2.15,7.59,1111122 
SCCF RECON,ioos:station:SCCF:51:1,2011-02-02T06:00:00Z,26.5545,-82.1715,2.08,7.54,1111122 
SCCF RECON,ioos:station:SCCF:51:1,2011-02-02T07:00:00Z,26.5545,-82.1715,1.97,7.5,1111122 
SCCF RECON,ioos:station:SCCF:51:1,2011-02-02T08:00:00Z,26.5545,-82.1715,1.835,7.4,1111122 
SCCF RECON,ioos:station:SCCF:51:1,2011-02-02T09:00:00Z,26.5545,-82.1715,1.702,7.33,1111122 
SCCF RECON,ioos:station:SCCF:51:1,2011-02-02T10:00:00Z,26.5545,-82.1715,1.575,7.19,1111122 
SCCF RECON,ioos:station:SCCF:51:1,2011-02-02T11:00:00Z,26.5545,-82.1715,1.473,7.01,1111122 
SCCF RECON,ioos:station:SCCF:51:1,2011-02-02T12:00:00Z,26.5545,-82.1715,1.411,6.99,1111122 
SCCF RECON,ioos:station:SCCF:51:1,2011-02-02T13:00:00Z,26.5545,-82.1715,1.4,7.14,1111122 
SCCF RECON,ioos:station:SCCF:51:1,2011-02-02T14:00:00Z,26.5545,-82.1715,1.468,7.26,1111122 
SCCF RECON,ioos:station:SCCF:51:1,2011-02-02T15:00:00Z,26.5545,-82.1715,1.591,7.27,1111122 
SCCF RECON,ioos:station:SCCF:51:1,2011-02-02T16:00:00Z,26.5545,-82.1715,1.727,7.32,1111122 
SCCF RECON,ioos:station:SCCF:51:1,2011-02-02T17:00:00Z,26.5545,-82.1715,1.813,7.45,1111122 
SCCF RECON,ioos:station:SCCF:51:1,2011-02-02T18:00:00Z,26.5545,-82.1715,1.859,7.52,1111122 
SCCF RECON,ioos:station:SCCF:51:1,2011-02-02T19:00:00Z,26.5545,-82.1715,1.856,7.63,1111122 
SCCF RECON,ioos:station:SCCF:51:1,2011-02-02T20:00:00Z,26.5545,-82.1715,1.8,7.62,1111122 
SCCF RECON,ioos:station:SCCF:51:1,2011-02-02T21:00:00Z,26.5545,-82.1715,1.754,7.53,1111122 
SCCF RECON,ioos:station:SCCF:51:1,2011-02-02T22:00:00Z,26.5545,-82.1715,1.693,7.55,1111122 
SCCF RECON,ioos:station:SCCF:51:1,2011-02-02T23:00:00Z,26.5545,-82.1715,1.646,7.57,1111122 
SCCF RECON,ioos:station:SCCF:51:1,2011-02-03T00:00:00Z,26.5545,-82.1715,1.623,7.57,1111122 
SCCF RECON,ioos:station:SCCF:51:1,2011-02-03T01:00:00Z,26.5545,-82.1715,1.663,7.46,1111122 
SCCF RECON,ioos:station:SCCF:51:1,2011-02-03T02:00:00Z,26.5545,-82.1715,1.731,7.43,1111122 
SCCF RECON,ioos:station:SCCF:51:1,2011-02-03T03:00:00Z,26.5545,-82.1715,1.84,7.54,1111122 
SCCF RECON,ioos:station:SCCF:51:1,2011-02-03T04:00:00Z,26.5545,-82.1715,1.95,7.64,1111122 
SCCF RECON,ioos:station:SCCF:51:1,2011-02-03T05:00:00Z,26.5545,-82.1715,2.02,7.59,1111122 
SCCF RECON,ioos:station:SCCF:51:1,2011-02-03T06:00:00Z,26.5545,-82.1715,2.003,7.52,1111122 
SCCF RECON,ioos:station:SCCF:51:1,2011-02-03T07:00:00Z,26.5545,-82.1715,1.92,7.41,1111122 
SCCF RECON,ioos:station:SCCF:51:1,2011-02-03T08:00:00Z,26.5545,-82.1715,1.81,7.22,1111122 
SCCF RECON,ioos:station:SCCF:51:1,2011-02-03T09:00:00Z,26.5545,-82.1715,1.68,7.24,1111122 
SCCF RECON,ioos:station:SCCF:51:1,2011-02-03T10:00:00Z,26.5545,-82.1715,1.56,7.25,1111122 
SCCF RECON,ioos:station:SCCF:51:1,2011-02-03T11:00:00Z,26.5545,-82.1715,1.46,7.22,1111122 
SCCF RECON,ioos:station:SCCF:51:1,2011-02-03T12:00:00Z,26.5545,-82.1715,1.379,7.06,1111122 
SCCF RECON,ioos:station:SCCF:51:1,2011-02-03T13:00:00Z,26.5545,-82.1715,1.322,7.06,1111122 
SCCF RECON,ioos:station:SCCF:51:1,2011-02-03T14:00:00Z,26.5545,-82.1715,1.342,7.14,1111122 
SCCF RECON,ioos:station:SCCF:51:1,2011-02-03T15:00:00Z,26.5545,-82.1715,1.44,7.25,1111122 
SCCF RECON,ioos:station:SCCF:51:1,2011-02-03T16:00:00Z,26.5545,-82.1715,1.56,7.31,1111122 
SCCF RECON,ioos:station:SCCF:51:1,2011-02-03T17:00:00Z,26.5545,-82.1715,1.684,7.49,1111122 
SCCF RECON,ioos:station:SCCF:51:1,2011-02-03T18:00:00Z,26.5545,-82.1715,1.773,7.55,1111122 
SCCF RECON,ioos:station:SCCF:51:1,2011-02-03T19:00:00Z,26.5545,-82.1715,1.812,7.64,1111122 
SCCF RECON,ioos:station:SCCF:51:1,2011-02-03T20:00:00Z,26.5545,-82.1715,1.787,7.74,1111122 
SCCF RECON,ioos:station:SCCF:51:1,2011-02-03T21:00:00Z,26.5545,-82.1715,1.718,7.67,1111122 
SCCF RECON,ioos:station:SCCF:51:1,2011-02-03T22:00:00Z,26.5545,-82.1715,1.635,7.76,1111122 
SCCF RECON,ioos:station:SCCF:51:1,2011-02-03T23:00:00Z,26.5545,-82.1715,1.578,7.8,1111122 
SCCF RECON,ioos:station:SCCF:51:1,2011-02-04T00:00:00Z,26.5545,-82.1715,1.566,7.83,1111122 
SCCF RECON,ioos:station:SCCF:51:1,2011-02-04T01:00:00Z,26.5545,-82.1715,1.62,7.74,1111122 
SCCF RECON,ioos:station:SCCF:51:1,2011-02-04T02:00:00Z,26.5545,-82.1715,1.701,7.56,1111122 
SCCF RECON,ioos:station:SCCF:51:1,2011-02-04T03:00:00Z,26.5545,-82.1715,1.811,7.6,1111122 
SCCF RECON,ioos:station:SCCF:51:1,2011-02-04T04:00:00Z,26.5545,-82.1715,1.94,7.61,1111122 
SCCF RECON,ioos:station:SCCF:51:1,2011-02-04T05:00:00Z,26.5545,-82.1715,2.034,7.58,1111122 
SCCF RECON,ioos:station:SCCF:51:1,2011-02-04T06:00:00Z,26.5545,-82.1715,2.064,7.45,1111122 
SCCF RECON,ioos:station:SCCF:51:1,2011-02-04T07:00:00Z,26.5545,-82.1715,2.009,7.48,1111122 
SCCF RECON,ioos:station:SCCF:51:1,2011-02-04T08:00:00Z,26.5545,-82.1715,1.911,7.41,1111122 
SCCF RECON,ioos:station:SCCF:51:1,2011-02-04T09:00:00Z,26.5545,-82.1715,1.801,7.34,1111122 
SCCF RECON,ioos:station:SCCF:51:1,2011-02-04T10:00:00Z,26.5545,-82.1715,1.678,7.36,1111122 
SCCF RECON,ioos:station:SCCF:51:1,2011-02-04T11:00:00Z,26.5545,-82.1715,1.562,7.27,1111122 
SCCF RECON,ioos:station:SCCF:51:1,2011-02-04T12:00:00Z,26.5545,-82.1715,1.466,7.13,1111122 
SCCF RECON,ioos:station:SCCF:51:1,2011-02-04T13:00:00Z,26.5545,-82.1715,1.389,7.15,1111122 
SCCF RECON,ioos:station:SCCF:51:1,2011-02-04T14:00:00Z,26.5545,-82.1715,1.368,7.26,1111122 
SCCF RECON,ioos:station:SCCF:51:1,2011-02-04T15:00:00Z,26.5545,-82.1715,1.44,7.36,1111122 
SCCF RECON,ioos:station:SCCF:51:1,2011-02-04T16:00:00Z,26.5545,-82.1715,1.555,7.56,1111122 
SCCF RECON,ioos:station:SCCF:51:1,2011-02-04T17:00:00Z,26.5545,-82.1715,1.671,7.36,1111122 
SCCF RECON,ioos:station:SCCF:51:1,2011-02-04T18:00:00Z,26.5545,-82.1715,1.748,7.5,1111122 
SCCF RECON,ioos:station:SCCF:51:1,2011-02-04T19:00:00Z,26.5545,-82.1715,1.772,7.59,1111122 
SCCF RECON,ioos:station:SCCF:51:1,2011-02-04T20:00:00Z,26.5545,-82.1715,1.74,7.62,1111122 
SCCF RECON,ioos:station:SCCF:51:1,2011-02-04T21:00:00Z,26.5545,-82.1715,1.679,7.68,1111122 
SCCF RECON,ioos:station:SCCF:51:1,2011-02-04T22:00:00Z,26.5545,-82.1715,1.612,7.72,1111122 
SCCF RECON,ioos:station:SCCF:51:1,2011-02-04T23:00:00Z,26.5545,-82.1715,1.544,7.7,1111122 
SCCF RECON,ioos:station:SCCF:51:1,2011-02-05T00:00:00Z,26.5545,-82.1715,1.502,7.65,1111122 
SCCF RECON,ioos:station:SCCF:51:1,2011-02-05T01:00:00Z,26.5545,-82.1715,1.497,7.53,1111122 
SCCF RECON,ioos:station:SCCF:51:1,2011-02-05T02:00:00Z,26.5545,-82.1715,1.551,7.63,1111122 
SCCF RECON,ioos:station:SCCF:51:1,2011-02-05T03:00:00Z,26.5545,-82.1715,1.624,7.36,1111122 
SCCF RECON,ioos:station:SCCF:51:1,2011-02-05T04:00:00Z,26.5545,-82.1715,1.747,7.44,1111122 
SCCF RECON,ioos:station:SCCF:51:1,2011-02-05T05:00:00Z,26.5545,-82.1715,1.876,7.42,1111122 
SCCF RECON,ioos:station:SCCF:51:1,2011-02-05T06:00:00Z,26.5545,-82.1715,1.958,7.31,1111122 
SCCF RECON,ioos:station:SCCF:51:1,2011-02-05T07:00:00Z,26.5545,-82.1715,1.971,7.24,1111122 
SCCF RECON,ioos:station:SCCF:51:1,2011-02-05T08:00:00Z,26.5545,-82.1715,1.908,7.19,1111122 
SCCF RECON,ioos:station:SCCF:51:1,2011-02-05T09:00:00Z,26.5545,-82.1715,1.807,7.14,1111122 
SCCF RECON,ioos:station:SCCF:51:1,2011-02-05T10:00:00Z,26.5545,-82.1715,1.694,7.16,1111122 
SCCF RECON,ioos:station:SCCF:51:1,2011-02-05T11:00:00Z,26.5545,-82.1715,1.591,7.09,1111122 
SCCF RECON,ioos:station:SCCF:51:1,2011-02-05T12:00:00Z,26.5545,-82.1715,1.504,7.04,1111122 
SCCF RECON,ioos:station:SCCF:51:1,2011-02-05T13:00:00Z,26.5545,-82.1715,1.429,6.99,1111122 
SCCF RECON,ioos:station:SCCF:51:1,2011-02-05T14:00:00Z,26.5545,-82.1715,1.395,7.09,1111122 
SCCF RECON,ioos:station:SCCF:51:1,2011-02-05T15:00:00Z,26.5545,-82.1715,1.445,7.13,1111122 
SCCF RECON,ioos:station:SCCF:51:1,2011-02-05T16:00:00Z,26.5545,-82.1715,1.549,7.26,1111122 
SCCF RECON,ioos:station:SCCF:51:1,2011-02-05T17:00:00Z,26.5545,-82.1715,1.682,7.2,1111122 
SCCF RECON,ioos:station:SCCF:51:1,2011-02-05T18:00:00Z,26.5545,-82.1715,1.804,7.33,1111122 
SCCF RECON,ioos:station:SCCF:51:1,2011-02-05T19:00:00Z,26.5545,-82.1715,1.856,7.4,1111122 
SCCF RECON,ioos:station:SCCF:51:1,2011-02-05T20:00:00Z,26.5545,-82.1715,1.835,7.43,1111122 
SCCF RECON,ioos:station:SCCF:51:1,2011-02-05T21:00:00Z,26.5545,-82.1715,1.776,7.43,1111122 
SCCF RECON,ioos:station:SCCF:51:1,2011-02-05T22:00:00Z,26.5545,-82.1715,1.699,7.38,1111122 
SCCF RECON,ioos:station:SCCF:51:1,2011-02-05T23:00:00Z,26.5545,-82.1715,1.616,7.32,1111122 
SCCF RECON,ioos:station:SCCF:51:1,2011-02-06T00:00:00Z,26.5545,-82.1715,1.535,7.27,1111122 
SCCF RECON,ioos:station:SCCF:51:1,2011-02-06T01:00:00Z,26.5545,-82.1715,1.494,7.08,1111122 
SCCF RECON,ioos:station:SCCF:51:1,2011-02-06T02:00:00Z,26.5545,-82.1715,1.507,7.19,1111122 
SCCF RECON,ioos:station:SCCF:51:1,2011-02-06T03:00:00Z,26.5545,-82.1715,1.557,7.14,1111122 
SCCF RECON,ioos:station:SCCF:51:1,2011-02-06T04:00:00Z,26.5545,-82.1715,1.635,7.05,1111122 
SCCF RECON,ioos:station:SCCF:51:1,2011-02-06T05:00:00Z,26.5545,-82.1715,1.744,6.96,1111122 
SCCF RECON,ioos:station:SCCF:51:1,2011-02-06T06:00:00Z,26.5545,-82.1715,1.846,7.07,1111122 
SCCF RECON,ioos:station:SCCF:51:1,2011-02-06T07:00:00Z,26.5545,-82.1715,1.872,7.09,1111122 
SCCF RECON,ioos:station:SCCF:51:1,2011-02-06T08:00:00Z,26.5545,-82.1715,1.83,6.93,1111122 
SCCF RECON,ioos:station:SCCF:51:1,2011-02-06T09:00:00Z,26.5545,-82.1715,1.77,6.88,1111122 
SCCF RECON,ioos:station:SCCF:51:1,2011-02-06T10:00:00Z,26.5545,-82.1715,1.697,6.82,1111122 
SCCF RECON,ioos:station:SCCF:51:1,2011-02-06T11:00:00Z,26.5545,-82.1715,1.609,6.72,1111122 
SCCF RECON,ioos:station:SCCF:51:1,2011-02-06T12:00:00Z,26.5545,-82.1715,1.532,6.71,1111122 
SCCF RECON,ioos:station:SCCF:51:1,2011-02-06T13:00:00Z,26.5545,-82.1715,1.48,6.95,1111122 
SCCF RECON,ioos:station:SCCF:51:1,2011-02-06T14:00:00Z,26.5545,-82.1715,1.426,6.81,1111122 
SCCF RECON,ioos:station:SCCF:51:1,2011-02-06T15:00:00Z,26.5545,-82.1715,1.433,6.82,1111122 
SCCF RECON,ioos:station:SCCF:51:1,2011-02-06T16:00:00Z,26.5545,-82.1715,1.5,6.88,1111122 
SCCF RECON,ioos:station:SCCF:51:1,2011-02-06T17:00:00Z,26.5545,-82.1715,1.592,7.06,1111122 
SCCF RECON,ioos:station:SCCF:51:1,2011-02-06T18:00:00Z,26.5545,-82.1715,1.712,7.11,1111122 
SCCF RECON,ioos:station:SCCF:51:1,2011-02-06T19:00:00Z,26.5545,-82.1715,1.796,7.06,1111122 
SCCF RECON,ioos:station:SCCF:51:1,2011-02-06T20:00:00Z,26.5545,-82.1715,1.814,7.09,1111122 
SCCF RECON,ioos:station:SCCF:51:1,2011-02-06T21:00:00Z,26.5545,-82.1715,1.786,7.14,1111122 
SCCF RECON,ioos:station:SCCF:51:1,2011-02-06T22:00:00Z,26.5545,-82.1715,1.718,7.13,1111122 
SCCF RECON,ioos:station:SCCF:51:1,2011-02-06T23:00:00Z,26.5545,-82.1715,1.64,7.25,1111122 
SCCF RECON,ioos:station:SCCF:51:1,2011-02-07T00:00:00Z,26.5545,-82.1715,1.55,7.14,1111122 
SCCF RECON,ioos:station:SCCF:51:1,2011-02-07T01:00:00Z,26.5545,-82.1715,1.49,7.03,1111122 
SCCF RECON,ioos:station:SCCF:51:1,2011-02-07T02:00:00Z,26.5545,-82.1715,1.463,7.09,1111122 
SCCF RECON,ioos:station:SCCF:51:1,2011-02-07T03:00:00Z,26.5545,-82.1715,1.49,7.08,1111122 
SCCF RECON,ioos:station:SCCF:51:1,2011-02-07T04:00:00Z,26.5545,-82.1715,1.558,7.04,1111122 
SCCF RECON,ioos:station:SCCF:51:1,2011-02-07T05:00:00Z,26.5545,-82.1715,1.65,6.83,1111122 
SCCF RECON,ioos:station:SCCF:51:1,2011-02-07T06:00:00Z,26.5545,-82.1715,1.76,6.84,1111122 
SCCF RECON,ioos:station:SCCF:51:1,2011-02-07T07:00:00Z,26.5545,-82.1715,1.84,6.69,1111122 
SCCF RECON,ioos:station:SCCF:51:1,2011-02-07T08:00:00Z,26.5545,-82.1715,1.851,6.79,1111122 
SCCF RECON,ioos:station:SCCF:51:1,2011-02-07T09:00:00Z,26.5545,-82.1715,1.81,6.76,1111122 
SCCF RECON,ioos:station:SCCF:51:1,2011-02-07T10:00:00Z,26.5545,-82.1715,1.738,6.65,1111122 
SCCF RECON,ioos:station:SCCF:51:1,2011-02-07T11:00:00Z,26.5545,-82.1715,1.661,6.4,1111122 
SCCF RECON,ioos:station:SCCF:51:1,2011-02-07T12:00:00Z,26.5545,-82.1715,1.589,6.5,1111122 
SCCF RECON,ioos:station:SCCF:51:1,2011-02-07T13:00:00Z,26.5545,-82.1715,1.53,6.38,1111122 
SCCF RECON,ioos:station:SCCF:51:1,2011-02-07T14:00:00Z,26.5545,-82.1715,1.518,6.37,1111122 
SCCF RECON,ioos:station:SCCF:51:1,2011-02-07T15:00:00Z,26.5545,-82.1715,1.533,6.66,1111122 
SCCF RECON,ioos:station:SCCF:51:1,2011-02-07T16:00:00Z,26.5545,-82.1715,1.613,6.77,1111122 
SCCF RECON,ioos:station:SCCF:51:1,2011-02-07T17:00:00Z,26.5545,-82.1715,1.72,7.07,1111122 
SCCF RECON,ioos:station:SCCF:51:1,2011-02-07T18:00:00Z,26.5545,-82.1715,1.823,7.16,1111122 
SCCF RECON,ioos:station:SCCF:51:1,2011-02-07T19:00:00Z,26.5545,-82.1715,1.907,7.34,1111122 
SCCF RECON,ioos:station:SCCF:51:1,2011-02-07T20:00:00Z,26.5545,-82.1715,1.947,7.35,1111122 
SCCF RECON,ioos:station:SCCF:51:1,2011-02-07T21:00:00Z,26.5545,-82.1715,1.942,7.38,1111122 
SCCF RECON,ioos:station:SCCF:51:1,2011-02-07T22:00:00Z,26.5545,-82.1715,1.881,7.21,1111122 
SCCF RECON,ioos:station:SCCF:51:1,2011-02-07T23:00:00Z,26.5545,-82.1715,1.805,7.23,1111122 
SCCF RECON,ioos:station:SCCF:51:1,2011-02-08T00:00:00Z,26.5545,-82.1715,1.734,6.95,1111122 
SCCF RECON,ioos:station:SCCF:51:1,2011-02-08T01:00:00Z,26.5545,-82.1715,1.639,6.99,1111122 
SCCF RECON,ioos:station:SCCF:51:1,2011-02-08T02:00:00Z,26.5545,-82.1715,1.557,6.88,1111122 
SCCF RECON,ioos:station:SCCF:51:1,2011-02-08T03:00:00Z,26.5545,-82.1715,1.513,6.86,1111122 
SCCF RECON,ioos:station:SCCF:51:1,2011-02-08T04:00:00Z,26.5545,-82.1715,1.506,6.76,1111122 
SCCF RECON,ioos:station:SCCF:51:1,2011-02-08T05:00:00Z,26.5545,-82.1715,1.548,6.75,1111122 
SCCF RECON,ioos:station:SCCF:51:1,2011-02-08T06:00:00Z,26.5545,-82.1715,1.611,6.8,1111122 
SCCF RECON,ioos:station:SCCF:51:1,2011-02-08T07:00:00Z,26.5545,-82.1715,1.693,6.7,1111122 
SCCF RECON,ioos:station:SCCF:51:1,2011-02-08T08:00:00Z,26.5545,-82.1715,1.745,6.78,1111122 
SCCF RECON,ioos:station:SCCF:51:1,2011-02-08T09:00:00Z,26.5545,-82.1715,1.718,6.77,1111122 
SCCF RECON,ioos:station:SCCF:51:1,2011-02-08T10:00:00Z,26.5545,-82.1715,1.673,6.88,1111122 
SCCF RECON,ioos:station:SCCF:51:1,2011-02-08T11:00:00Z,26.5545,-82.1715,1.613,6.8,1111122 
SCCF RECON,ioos:station:SCCF:51:1,2011-02-08T12:00:00Z,26.5545,-82.1715,1.548,6.77,1111122 
SCCF RECON,ioos:station:SCCF:51:1,2011-02-08T13:00:00Z,26.5545,-82.1715,1.489,6.73,1111122 
SCCF RECON,ioos:station:SCCF:51:1,2011-02-08T14:00:00Z,26.5545,-82.1715,1.474,6.75,1111122 
SCCF RECON,ioos:station:SCCF:51:1,2011-02-08T15:00:00Z,26.5545,-82.1715,1.521,6.88,1111122 
SCCF RECON,ioos:station:SCCF:51:1,2011-02-08T17:00:00Z,26.5545,-82.1715,1.667,7.22,1111122 
SCCF RECON,ioos:station:SCCF:51:1,2011-02-08T18:00:00Z,26.5545,-82.1715,1.742,7.35,1111122 
SCCF RECON,ioos:station:SCCF:51:1,2011-02-08T19:00:00Z,26.5545,-82.1715,1.81,7.36,1111122 
SCCF RECON,ioos:station:SCCF:51:1,2011-02-08T20:00:00Z,26.5545,-82.1715,1.859,7.44,1111122 
SCCF RECON,ioos:station:SCCF:51:1,2011-02-08T21:00:00Z,26.5545,-82.1715,1.845,7.48,1111122 
SCCF RECON,ioos:station:SCCF:51:1,2011-02-08T22:00:00Z,26.5545,-82.1715,1.791,7.47,1111122 
SCCF RECON,ioos:station:SCCF:51:1,2011-02-08T23:00:00Z,26.5545,-82.1715,1.726,7.51,1111122 
SCCF RECON,ioos:station:SCCF:51:1,2011-02-09T00:00:00Z,26.5545,-82.1715,1.652,7.52,1111122 
SCCF RECON,ioos:station:SCCF:51:1,2011-02-09T01:00:00Z,26.5545,-82.1715,1.583,7.38,1111122 
SCCF RECON,ioos:station:SCCF:51:1,2011-02-09T02:00:00Z,26.5545,-82.1715,1.518,7.3,1111122 
SCCF RECON,ioos:station:SCCF:51:1,2011-02-09T03:00:00Z,26.5545,-82.1715,1.449,7.27,1111122 
SCCF RECON,ioos:station:SCCF:51:1,2011-02-09T04:00:00Z,26.5545,-82.1715,1.404,7.24,1111122 
SCCF RECON,ioos:station:SCCF:51:1,2011-02-09T05:00:00Z,26.5545,-82.1715,1.403,7.15,1111122 
SCCF RECON,ioos:station:SCCF:51:1,2011-02-09T06:00:00Z,26.5545,-82.1715,1.447,7.19,1111122 
SCCF RECON,ioos:station:SCCF:51:1,2011-02-09T07:00:00Z,26.5545,-82.1715,1.494,7.15,1111122 
SCCF RECON,ioos:station:SCCF:51:1,2011-02-09T08:00:00Z,26.5545,-82.1715,1.554,7.11,1111122 
SCCF RECON,ioos:station:SCCF:51:1,2011-02-09T09:00:00Z,26.5545,-82.1715,1.59,7.0,1111122 
SCCF RECON,ioos:station:SCCF:51:1,2011-02-09T10:00:00Z,26.5545,-82.1715,1.579,7.04,1111122 
SCCF RECON,ioos:station:SCCF:51:1,2011-02-09T11:00:00Z,26.5545,-82.1715,1.548,7.05,1111122 
SCCF RECON,ioos:station:SCCF:51:1,2011-02-09T12:00:00Z,26.5545,-82.1715,1.511,7.05,1111122 
SCCF RECON,ioos:station:SCCF:51:1,2011-02-09T13:00:00Z,26.5545,-82.1715,1.476,7.02,1111122 
SCCF RECON,ioos:station:SCCF:51:1,2011-02-09T14:00:00Z,26.5545,-82.1715,1.449,7.04,1111122 
SCCF RECON,ioos:station:SCCF:51:1,2011-02-09T15:00:00Z,26.5545,-82.1715,1.472,7.08,1111122 
SCCF RECON,ioos:station:SCCF:51:1,2011-02-09T16:00:00Z,26.5545,-82.1715,1.527,7.21,1111122 
SCCF RECON,ioos:station:SCCF:51:1,2011-02-09T17:00:00Z,26.5545,-82.1715,1.591,7.34,1111122 
SCCF RECON,ioos:station:SCCF:51:1,2011-02-09T18:00:00Z,26.5545,-82.1715,1.666,7.43,1111122 
SCCF RECON,ioos:station:SCCF:51:1,2011-02-09T19:00:00Z,26.5545,-82.1715,1.755,7.76,1111122 
SCCF RECON,ioos:station:SCCF:51:1,2011-02-09T20:00:00Z,26.5545,-82.1715,1.82,7.45,1111122 
SCCF RECON,ioos:station:SCCF:51:1,2011-02-09T21:00:00Z,26.5545,-82.1715,1.853,7.68,1111122 
SCCF RECON,ioos:station:SCCF:51:1,2011-02-09T22:00:00Z,26.5545,-82.1715,1.858,7.57,1111122 
SCCF RECON,ioos:station:SCCF:51:1,2011-02-09T23:00:00Z,26.5545,-82.1715,1.811,7.66,1111122 
SCCF RECON,ioos:station:SCCF:51:1,2011-02-10T00:00:00Z,26.5545,-82.1715,1.751,7.54,1111122 
SCCF RECON,ioos:station:SCCF:51:1,2011-02-10T01:00:00Z,26.5545,-82.1715,1.683,7.46,1111122 
SCCF RECON,ioos:station:SCCF:51:1,2011-02-10T02:00:00Z,26.5545,-82.1715,1.592,7.52,1111122 
SCCF RECON,ioos:station:SCCF:51:1,2011-02-10T03:00:00Z,26.5545,-82.1715,1.512,7.5,1111122 
SCCF RECON,ioos:station:SCCF:51:1,2011-02-10T04:00:00Z,26.5545,-82.1715,1.43,7.44,1111122 
SCCF RECON,ioos:station:SCCF:51:1,2011-02-10T05:00:00Z,26.5545,-82.1715,1.41,7.4,1111122 
SCCF RECON,ioos:station:SCCF:51:1,2011-02-10T06:00:00Z,26.5545,-82.1715,1.43,7.44,1111122 
SCCF RECON,ioos:station:SCCF:51:1,2011-02-10T07:00:00Z,26.5545,-82.1715,1.5,7.22,1111122 
SCCF RECON,ioos:station:SCCF:51:1,2011-02-10T08:00:00Z,26.5545,-82.1715,1.56,7.25,1111122 
SCCF RECON,ioos:station:SCCF:51:1,2011-02-10T09:00:00Z,26.5545,-82.1715,1.611,7.0,1111122 
SCCF RECON,ioos:station:SCCF:51:1,2011-02-10T10:00:00Z,26.5545,-82.1715,1.631,7.01,1111122 
SCCF RECON,ioos:station:SCCF:51:1,2011-02-10T11:00:00Z,26.5545,-82.1715,1.639,6.96,1111122 
SCCF RECON,ioos:station:SCCF:51:1,2011-02-10T12:00:00Z,26.5545,-82.1715,1.645,6.89,1111122 
SCCF RECON,ioos:station:SCCF:51:1,2011-02-10T13:00:00Z,26.5545,-82.1715,1.66,6.72,1111122 
SCCF RECON,ioos:station:SCCF:51:1,2011-02-10T14:00:00Z,26.5545,-82.1715,1.672,6.74,1111122 
SCCF RECON,ioos:station:SCCF:51:1,2011-02-10T15:00:00Z,26.5545,-82.1715,1.699,6.98,1111122 
SCCF RECON,ioos:station:SCCF:51:1,2011-02-10T16:00:00Z,26.5545,-82.1715,1.73,7.22,1111122 
SCCF RECON,ioos:station:SCCF:51:1,2011-02-10T17:00:00Z,26.5545,-82.1715,1.776,7.25,1111122 
SCCF RECON,ioos:station:SCCF:51:1,2011-02-10T18:00:00Z,26.5545,-82.1715,1.811,7.22,1111122 
SCCF RECON,ioos:station:SCCF:51:1,2011-02-10T19:00:00Z,26.5545,-82.1715,1.835,7.42,1111122 
SCCF RECON,ioos:station:SCCF:51:1,2011-02-10T20:00:00Z,26.5545,-82.1715,1.88,7.51,1111122 
SCCF RECON,ioos:station:SCCF:51:1,2011-02-10T21:00:00Z,26.5545,-82.1715,1.941,7.55,1111122 
SCCF RECON,ioos:station:SCCF:51:1,2011-02-10T22:00:00Z,26.5545,-82.1715,2.002,7.57,1111122 
SCCF RECON,ioos:station:SCCF:51:1,2011-02-10T23:00:00Z,26.5545,-82.1715,1.958,7.52,1111122 
SCCF RECON,ioos:station:SCCF:51:1,2011-02-11T00:00:00Z,26.5545,-82.1715,1.884,7.42,1111122 
SCCF RECON,ioos:station:SCCF:51:1,2011-02-11T01:00:00Z,26.5545,-82.1715,1.776,7.31,1111122 
SCCF RECON,ioos:station:SCCF:51:1,2011-02-11T02:00:00Z,26.5545,-82.1715,1.653,7.21,1111122 
SCCF RECON,ioos:station:SCCF:51:1,2011-02-11T03:00:00Z,26.5545,-82.1715,1.569,7.23,1111122 
SCCF RECON,ioos:station:SCCF:51:1,2011-02-11T04:00:00Z,26.5545,-82.1715,1.482,7.22,1111122 
SCCF RECON,ioos:station:SCCF:51:1,2011-02-11T05:00:00Z,26.5545,-82.1715,1.439,7.19,1111122 
SCCF RECON,ioos:station:SCCF:51:1,2011-02-11T06:00:00Z,26.5545,-82.1715,1.4,7.12,1111122 
SCCF RECON,ioos:station:SCCF:51:1,2011-02-11T07:00:00Z,26.5545,-82.1715,1.372,7.05,1111122 
SCCF RECON,ioos:station:SCCF:51:1,2011-02-11T08:00:00Z,26.5545,-82.1715,1.396,7.05,1111122 
SCCF RECON,ioos:station:SCCF:51:1,2011-02-11T09:00:00Z,26.5545,-82.1715,1.432,7.06,1111122 
SCCF RECON,ioos:station:SCCF:51:1,2011-02-11T10:00:00Z,26.5545,-82.1715,1.499,7.05,1111122 
SCCF RECON,ioos:station:SCCF:51:1,2011-02-11T11:00:00Z,26.5545,-82.1715,1.567,6.98,1111122 
SCCF RECON,ioos:station:SCCF:51:1,2011-02-11T12:00:00Z,26.5545,-82.1715,1.639,6.8,1111122 
SCCF RECON,ioos:station:SCCF:51:1,2011-02-11T13:00:00Z,26.5545,-82.1715,1.67,6.59,1111122 
SCCF RECON,ioos:station:SCCF:51:1,2011-02-11T14:00:00Z,26.5545,-82.1715,1.688,6.73,1111122 
SCCF RECON,ioos:station:SCCF:51:1,2011-02-11T15:00:00Z,26.5545,-82.1715,1.676,6.86,1111122 
SCCF RECON,ioos:station:SCCF:51:1,2011-02-11T16:00:00Z,26.5545,-82.1715,1.659,6.81,1111122 
SCCF RECON,ioos:station:SCCF:51:1,2011-02-11T17:00:00Z,26.5545,-82.1715,1.663,6.9,1111122 
SCCF RECON,ioos:station:SCCF:51:1,2011-02-11T18:00:00Z,26.5545,-82.1715,1.691,7.04,1111122 
SCCF RECON,ioos:station:SCCF:51:1,2011-02-11T19:00:00Z,26.5545,-82.1715,1.722,7.2,1111122 
SCCF RECON,ioos:station:SCCF:51:1,2011-02-11T20:00:00Z,26.5545,-82.1715,1.763,7.23,1111122 